Theta_e
308 309 308 308 307 308 309 309 309 309 309 309 308 309 311 315 316 316 314 310 310 316 317 319 320 318 317 317 318 318 319 320 321 323 323 324 325 325 323 322 322 322 322 323 322
308 309 308 308 308 310 310 310 310 311 311 310 309 312 315 317 317 314 310 310 309 316 319 318 318 317 318 318 318 318 319 319 321 321 321 321 322 322 322 321 321 321 321 321 320
308 308 309 309 310 311 309 310 310 311 310 309 312 315 316 319 322 316 310 310 313 315 318 318 317 318 319 319 319 319 320 320 320 319 319 319 319 320 320 320 320 320 320 320 321
307 309 310 311 311 311 310 310 311 309 308 309 312 315 316 317 322 315 312 315 316 316 319 317 318 319 320 320 320 320 319 319 319 319 318 319 319 319 318 318 319 319 319 319 320
308 309 311 312 312 311 309 311 311 309 309 309 312 314 317 319 316 313 316 316 317 318 317 317 318 317 318 319 319 318 319 319 319 318 318 318 318 318 317 317 317 317 318 318 318
308 308 311 312 312 311 309 311 311 312 311 313 314 315 317 319 316 316 316 316 315 316 317 317 316 316 317 319 318 318 318 318 317 317 317 318 318 318 318 318 318 318 317 317 317
309 308 310 312 310 309 309 310 311 310 312 314 315 319 319 316 316 317 318 317 316 316 316 317 316 316 317 318 318 318 318 318 319 319 319 319 318 319 319 319 319 318 318 317 316
310 309 309 311 310 310 310 310 311 311 312 315 317 320 318 316 317 317 316 316 317 317 317 316 316 316 317 318 319 319 320 320 321 321 320 319 319 320 320 319 319 319 319 318 317
310 310 310 310 312 311 311 311 311 311 312 315 320 324 319 316 317 315 316 316 315 316 317 317 317 318 318 319 320 320 320 320 320 321 321 320 319 320 319 320 319 320 320 320 320
312 311 311 311 314 311 312 312 311 311 312 315 318 318 317 317 315 315 316 315 316 317 317 318 318 320 320 320 320 319 319 318 318 318 319 318 318 319 318 319 319 319 319 320 321
312 311 311 313 314 315 315 320 317 318 320 319 318 317 317 316 316 316 316 316 317 317 319 319 318 319 319 320 319 318 318 317 317 318 317 318 319 320 320 320 319 319 320 320 321
311 311 311 312 313 317 318 319 318 318 319 319 317 316 316 315 316 317 316 316 315 317 317 318 318 318 317 317 316 316 317 317 318 318 318 319 319 320 321 320 319 320 321 321 321
309 311 311 312 316 317 318 316 316 318 320 322 318 317 317 315 316 317 315 315 316 317 318 317 317 317 316 316 317 317 317 317 317 317 317 317 318 319 320 321 321 322 321 321 321
305 312 311 314 317 318 319 317 317 318 324 323 319 318 316 316 317 317 315 315 317 317 317 316 317 318 318 318 317 317 317 317 317 317 317 317 320 320 321 321 321 322 321 321 322
305 311 312 313 315 319 317 317 317 320 336 322 318 316 316 317 317 317 316 316 317 317 317 317 317 318 318 318 317 318 318 318 318 318 318 318 319 319 320 320 322 323 322 321 320
305 308 313 320 320 318 316 317 320 328 333 320 318 318 318 318 318 318 317 317 317 318 318 318 319 318 319 317 317 318 318 319 319 320 323 320 324 322 322 323 323 322 322 321 321
306 307 312 314 319 317 317 319 327 331 321 320 318 318 318 318 319 318 318 318 319 319 318 318 319 318 318 317 317 317 318 322 319 320 324 324 324 324 324 323 323 323 321 321 321
307 309 314 315 318 317 317 322 328 324 321 319 318 317 318 319 319 318 319 318 318 318 318 320 320 318 318 317 317 317 316 321 321 321 319 319 322 323 322 323 321 320 320 320 321
315 319 318 320 317 316 318 324 324 322 318 317 317 318 319 319 319 319 319 318 318 317 317 318 319 318 317 318 317 317 318 318 323 322 324 321 321 323 324 322 321 320 320 321 322
315 322 321 317 315 317 321 323 321 318 317 317 317 319 319 319 319 319 318 318 317 316 316 316 319 317 317 318 317 318 318 322 325 327 324 320 322 325 323 322 321 321 321 320 321
319 323 321 316 315 319 324 321 319 317 315 317 318 318 318 319 319 319 318 319 318 317 316 316 317 317 317 317 318 317 318 320 321 323 323 322 321 324 324 321 321 321 320 321 321
321 320 320 314 320 322 320 320 316 317 316 317 318 318 318 319 319 319 319 319 316 315 316 315 316 319 316 315 316 316 317 319 324 324 325 325 325 321 320 321 320 320 320 320 320
320 318 319 316 322 321 318 319 318 318 318 318 318 318 318 318 320 318 319 317 317 317 316 316 318 319 317 317 316 317 317 317 321 322 324 325 322 320 320 319 319 319 318 318 319
320 319 318 315 318 319 320 318 319 318 317 317 317 317 318 319 320 320 319 318 317 317 315 315 317 316 318 316 316 317 316 316 318 321 321 321 319 320 320 319 319 318 319 318 317
316 317 318 317 316 316 318 318 319 319 319 317 318 319 319 319 319 319 319 318 316 316 317 317 318 317 316 316 315 315 315 315 317 318 320 319 321 320 319 319 318 317 317 318 318
314 313 314 314 316 318 319 320 319 319 317 317 317 318 317 318 317 318 316 317 317 316 316 320 319 318 317 315 313 314 316 317 317 318 319 319 319 316 316 316 316 316 315 316 316
311 312 312 313 315 318 317 317 317 316 315 315 317 317 317 316 314 314 313 314 316 317 319 317 319 317 318 314 314 318 316 318 319 318 319 318 317 315 316 315 315 314 314 313 313
Wind_Speed
12 10 9 8 8 8 9 8 8 7 6 5 6 10 16 16 12 10 6 4 5 7 7 7 5 6 7 10 8 13 10 13 18 20 14 21 4 6 4 4 15 14 15 18 14
13 9 8 8 8 8 9 7 7 7 5 5 8 16 15 13 13 7 4 3 3 3 9 7 5 6 11 6 5 7 10 17 15 13 13 22 18 14 9 13 13 14 18 20 17
14 9 8 8 8 8 9 7 7 8 6 8 14 17 12 5 1 4 7 6 9 3 6 7 7 8 11 9 12 8 12 17 23 17 16 22 20 16 16 14 17 22 19 20 16
15 9 8 8 7 8 9 7 6 7 8 12 15 13 6 3 2 1 10 10 9 9 7 8 9 10 10 10 7 9 16 18 19 16 20 15 24 20 20 22 23 23 22 19 17
15 10 8 8 7 8 9 7 6 8 11 13 13 8 1 2 6 2 6 9 10 7 6 9 7 11 11 14 11 15 16 16 14 15 17 20 20 23 25 25 25 27 26 26 23
15 11 8 7 7 8 8 5 6 9 10 10 6 1 7 0 3 2 6 6 6 6 6 7 9 11 11 12 12 19 17 19 22 23 23 21 21 24 24 25 26 27 25 27 28
15 11 7 7 8 9 6 5 7 9 11 8 4 5 2 5 1 4 4 6 5 6 7 7 9 9 16 15 13 17 18 18 21 26 22 13 16 19 27 27 25 25 23 24 26
14 12 7 7 9 10 5 5 7 8 9 6 4 4 3 2 6 4 6 9 7 7 6 7 9 12 13 18 20 19 20 17 19 16 13 16 16 17 22 23 26 14 20 21 21
13 12 7 7 10 9 6 6 6 5 6 4 2 5 2 5 2 4 6 9 10 10 12 11 11 12 15 14 13 17 17 21 21 17 16 16 22 21 23 21 26 21 22 23 22
13 10 7 7 10 8 7 4 5 6 3 5 8 9 3 2 4 6 5 9 9 10 13 16 19 13 13 13 15 24 24 24 25 23 25 25 26 25 33 29 27 30 29 28 30
13 8 5 6 8 8 3 7 5 5 9 11 5 5 0 4 5 6 5 10 13 11 15 13 11 13 18 17 19 20 23 25 25 24 24 25 25 22 27 27 24 29 29 27 26
13 6 3 4 6 7 8 7 6 8 10 10 6 7 4 5 10 3 6 12 14 13 16 13 14 14 20 19 20 21 24 25 25 25 23 21 23 24 26 25 31 30 32 30 29
13 4 4 2 3 4 3 8 9 7 7 12 8 8 4 5 7 7 7 11 14 12 14 15 20 16 12 17 20 20 21 22 26 25 23 23 24 21 26 21 21 39 34 28 24
14 3 2 0 3 4 2 11 9 4 5 11 8 4 6 7 10 5 6 7 10 13 15 11 10 16 18 19 18 21 20 21 23 20 19 21 17 21 20 20 15 31 23 18 12
15 4 2 3 2 6 9 9 4 1 4 7 7 3 5 9 7 10 6 8 13 17 13 19 19 18 19 14 14 19 16 17 21 21 21 22 13 19 21 18 11 10 7 4 7
15 4 4 2 3 6 9 6 2 5 3 7 2 5 9 10 13 5 12 11 18 18 13 20 22 18 15 11 15 19 20 20 20 17 17 20 13 18 3 8 11 8 19 6 3
13 2 6 4 4 9 6 5 6 6 3 4 4 11 13 16 6 9 9 12 13 15 15 17 19 13 6 12 14 17 17 11 12 11 8 9 10 8 14 14 12 13 9 6 1
10 1 2 4 6 8 5 8 7 7 12 11 11 17 18 3 8 11 14 14 13 12 12 14 15 15 14 18 23 21 15 12 21 16 19 17 9 9 11 27 10 4 4 5 4
6 6 2 1 8 5 8 7 4 10 9 11 15 15 10 1 6 13 13 15 7 6 7 12 8 25 22 17 9 13 12 17 11 15 15 16 22 14 19 20 8 3 4 5 8
9 1 4 3 6 2 7 13 8 4 8 9 13 10 13 15 13 13 13 11 4 4 5 10 22 15 18 19 13 17 17 12 6 6 11 11 7 3 12 13 16 13 18 3 2
8 6 2 4 4 7 8 9 7 8 7 7 11 16 16 17 15 15 10 16 8 7 10 14 13 20 19 16 21 17 10 12 10 7 6 13 5 6 5 5 14 14 22 29 27
4 5 2 6 9 13 5 4 4 10 7 12 11 12 14 15 15 16 16 17 6 5 11 13 8 16 24 26 26 21 18 17 7 11 10 7 10 17 10 8 14 19 18 21 20
9 10 3 5 5 8 14 12 15 7 10 10 11 17 16 13 10 8 15 18 18 15 6 9 4 11 17 10 13 18 20 14 16 10 11 12 12 18 14 16 20 15 23 25 20
8 4 5 12 6 4 12 15 11 11 8 9 11 17 16 16 15 14 22 22 28 19 9 7 6 16 15 21 21 24 25 25 21 11 16 19 25 20 19 17 21 8 13 21 21
6 6 5 6 12 18 12 13 15 14 8 8 10 14 15 18 21 23 22 22 27 32 19 9 10 17 19 23 22 27 29 27 24 26 21 25 23 22 20 14 16 19 18 17 17
9 8 12 20 14 11 10 13 14 12 13 15 18 18 15 16 19 25 25 21 22 19 17 8 4 12 17 20 25 28 27 30 26 25 21 17 19 11 14 12 12 18 20 17 15
12 10 11 12 16 12 9 11 13 18 15 12 17 17 18 21 26 28 31 33 27 23 18 14 4 8 24 20 22 20 20 13 17 11 11 14 12 18 20 19 20 23 21 18 20
Wind_Direction
22 33 39 48 54 56 48 34 33 28 24 36 63 101 110 102 87 54 45 80 73 78 47 16 270 306 273 256 256 268 266 266 269 270 315 321 222 185 330 288 293 294 284 281 313
24 39 47 58 64 63 40 34 39 20 29 70 106 125 122 114 95 62 43 27 63 50 18 351 345 311 270 253 258 247 271 263 275 351 326 316 344 354 327 298 266 257 276 261 276
24 45 55 66 72 55 33 36 27 37 53 100 128 134 133 90 133 42 354 27 43 68 5 333 325 294 290 263 275 251 281 306 302 334 325 311 312 311 302 278 272 280 276 281 281
27 47 59 71 69 46 30 37 42 56 88 120 136 142 149 296 38 6 75 69 42 23 346 321 318 297 287 292 300 282 291 291 298 298 307 300 306 301 291 286 285 283 284 284 277
27 41 52 60 55 38 29 39 75 86 107 128 148 150 208 97 57 49 36 12 15 336 339 349 333 339 306 327 311 281 287 281 303 288 275 279 277 286 283 282 280 273 268 269 264
23 32 44 47 39 24 23 58 102 108 123 131 129 273 282 183 65 352 358 330 341 349 339 349 343 328 288 298 301 293 295 300 290 280 276 273 271 282 278 282 276 266 259 264 263
17 21 30 32 25 16 26 94 119 115 131 127 100 24 47 58 175 316 321 324 324 327 327 338 329 316 317 301 298 317 294 283 273 264 251 254 279 267 276 278 265 253 259 257 256
12 13 22 23 20 14 55 108 137 129 139 126 82 33 80 23 243 311 320 319 282 303 296 309 318 304 285 293 281 275 272 272 271 275 227 216 254 258 286 282 290 249 252 258 259
11 10 19 24 21 23 85 90 130 140 136 132 328 277 121 289 228 321 316 323 306 297 284 276 288 284 282 273 283 273 276 298 316 311 297 298 286 294 273 273 277 263 260 261 253
10 14 23 27 29 58 90 90 130 137 167 265 275 269 192 316 324 306 320 313 305 300 290 262 238 259 260 278 301 315 305 302 300 299 306 303 290 284 281 273 273 273 255 247 243
6 10 23 37 50 69 354 324 278 242 218 282 332 299 99 341 282 283 319 312 289 273 279 310 308 288 284 281 284 300 300 296 294 297 289 279 281 308 299 280 265 262 264 259 256
1 356 359 36 54 49 26 329 2 316 298 238 250 274 274 301 295 267 321 316 327 297 301 286 284 314 328 316 306 303 297 292 290 287 284 292 286 278 271 278 271 264 260 256 252
357 342 346 345 71 30 9 357 329 320 269 202 221 268 263 286 308 273 328 320 309 302 313 312 295 306 312 299 303 299 296 297 297 304 297 293 284 295 300 327 264 254 245 245 252
351 319 335 2 354 358 303 337 334 305 269 150 222 207 259 280 243 261 288 309 298 315 317 296 292 325 313 301 301 300 316 314 302 297 290 301 297 278 272 250 203 272 220 228 246
342 295 222 347 325 7 326 325 320 255 280 158 119 150 258 250 279 155 224 265 284 302 297 287 302 302 298 313 329 301 299 295 293 288 281 272 266 271 277 291 301 219 91 2 291
340 291 183 7 356 341 326 309 318 237 227 152 179 244 265 288 302 310 280 283 294 276 271 273 287 287 295 321 303 284 283 289 291 286 268 279 334 281 287 330 38 36 252 186 149
344 276 198 193 328 326 323 283 248 253 159 83 350 317 309 292 332 300 312 289 295 297 299 307 298 318 313 292 296 309 314 308 300 284 306 42 342 255 284 217 191 199 317 357 121
355 149 172 231 306 313 314 263 267 27 17 356 321 308 279 260 303 274 292 293 286 303 296 295 308 317 346 320 301 293 275 277 291 293 294 304 265 257 271 197 181 49 326 276 250
10 30 287 249 302 304 280 254 323 9 357 330 313 299 327 303 298 321 302 312 330 343 297 318 278 322 305 299 317 318 310 297 284 280 275 271 262 349 11 350 74 158 334 51 56
11 220 202 307 303 281 258 266 308 6 329 313 301 291 311 318 311 308 313 305 315 274 272 294 296 295 303 302 262 254 271 297 271 287 290 305 333 288 28 9 333 355 330 6 130
4 276 133 342 278 254 253 297 350 347 331 312 316 315 309 311 312 308 295 301 3 355 334 310 290 294 306 291 291 302 290 264 283 273 272 291 297 129 135 220 288 300 358 354 354
12 300 355 339 257 236 277 26 336 312 301 280 275 285 295 311 308 300 303 299 69 355 302 299 299 291 298 292 274 263 272 311 286 275 271 275 264 273 357 11 5 319 334 327 331
324 292 252 349 303 338 336 317 308 278 302 314 297 305 300 298 305 276 291 296 298 283 261 313 260 301 308 289 8 327 316 299 303 313 272 281 273 308 321 305 294 290 317 317 310
310 315 349 316 238 308 327 312 314 321 270 302 305 304 292 288 283 288 299 308 306 294 236 233 245 250 263 280 299 298 300 299 292 284 280 270 289 286 288 307 315 288 280 274 272
328 349 352 297 324 324 307 300 302 299 309 285 289 293 300 307 301 297 300 302 300 296 295 201 243 248 258 274 278 281 280 276 273 267 262 279 297 311 296 310 310 303 298 308 293
351 342 322 294 290 303 279 278 289 311 337 314 311 313 302 299 295 299 305 299 296 301 294 309 290 285 283 279 287 286 283 276 265 267 263 284 264 333 309 288 286 296 297 291 283
345 324 304 288 292 289 296 322 311 313 301 297 317 319 308 304 317 304 292 283 275 276 270 271 230 273 275 291 298 292 289 283 298 258 251 306 327 324 307 296 292 293 291 300 293